When you browse on this site, cookies collect data to enhance your experience and personalize the content and advertising you see.
Visit our Privacy Policy to learn more. By continuing to use the site, you agree to this use of cookies and data.
  • In Germany
  • List of Countries
  • For 7 days
  • Water Temperature
  • Weather Map
  • Weather Widgets
  • user-avatar
    Login

    Hourly Weather Kirkenes

    Today, 3 April, Friday

    Time Temperature Precipitation Wind Pressure Humidity
    00:00 -11°C° 0 mm 1 mps 723 mmHg 88%
    01:00 -11°C° 0 mm 1 mps 723 mmHg 87%
    02:00 -11°C° 0 mm 1 mps 723 mmHg 86%
    03:00 -11°C° 0 mm 1 mps 723 mmHg 87%
    04:00 -11°C° 0 mm 1 mps 722 mmHg 87%
    05:00 -12°C° 0 mm 1 mps 722 mmHg 87%
    06:00 -11°C° 0 mm 1 mps 722 mmHg 87%
    07:00 -10°C° 0 mm 0 mps 722 mmHg 86%
    08:00 -9°C° 0 mm 0 mps 723 mmHg 86%
    09:00 -8°C° 0 mm 1 mps 723 mmHg 84%
    10:00 -7°C° 0 mm 1 mps 723 mmHg 83%
    11:00 -7°C° 0 mm 1 mps 723 mmHg 81%
    12:00 -6°C° 0 mm 1 mps 723 mmHg 80%
    13:00 -6°C° 0 mm 1 mps 723 mmHg 79%
    14:00 -6°C° 0 mm 2 mps 723 mmHg 79%
    15:00 -6°C° 0 mm 1 mps 724 mmHg 81%
    16:00 -6°C° 0 mm 1 mps 724 mmHg 83%
    17:00 -7°C° 0 mm 1 mps 724 mmHg 85%
    18:00 -8°C° 0 mm 1 mps 724 mmHg 86%
    19:00 -9°C° 0 mm 1 mps 725 mmHg 86%
    20:00 -10°C° 0 mm 1 mps 725 mmHg 87%
    21:00 -10°C° 0 mm 1 mps 725 mmHg 86%
    22:00 -11°C° 0 mm 1 mps 726 mmHg 85%
    23:00 -11°C° 0 mm 1 mps 726 mmHg 84%

    Tomorrow, 4 April, Saturday

    Time Temperature Precipitation Wind Pressure Humidity
    00:00 -14°C° 0 mm 2 mps 726 mmHg 85%
    01:00 -14°C° 0 mm 2 mps 727 mmHg 85%
    02:00 -15°C° 0 mm 2 mps 727 mmHg 86%
    03:00 -15°C° 0 mm 2 mps 728 mmHg 86%
    04:00 -16°C° 0 mm 2 mps 728 mmHg 86%
    05:00 -16°C° 0 mm 2 mps 729 mmHg 86%
    06:00 -15°C° 0 mm 2 mps 729 mmHg 85%
    07:00 -14°C° 0 mm 2 mps 730 mmHg 84%
    08:00 -13°C° 0 mm 2 mps 730 mmHg 83%
    09:00 -12°C° 0 mm 3 mps 731 mmHg 82%
    10:00 -11°C° 0 mm 4 mps 731 mmHg 81%
    11:00 -10°C° 0 mm 5 mps 732 mmHg 80%
    12:00 -9°C° 0.1 mm 6 mps 733 mmHg 82%
    13:00 -8°C° 0.1 mm 8 mps 733 mmHg 85%
    14:00 -9°C° 0.1 mm 9 mps 734 mmHg 88%
    15:00 -9°C° 0.1 mm 10 mps 735 mmHg 85%
    16:00 -9°C° 0.1 mm 10 mps 736 mmHg 83%
    17:00 -9°C° 0.1 mm 11 mps 736 mmHg 80%
    18:00 -10°C° 0.1 mm 10 mps 737 mmHg 79%
    19:00 -10°C° 0.1 mm 10 mps 738 mmHg 79%
    20:00 -11°C° 0.1 mm 9 mps 738 mmHg 78%
    21:00 -11°C° 0 mm 9 mps 739 mmHg 79%
    22:00 -11°C° 0 mm 9 mps 740 mmHg 79%
    23:00 -11°C° 0 mm 9 mps 741 mmHg 80%

    Day after tomorrow, 5 April, Sunday

    Time Temperature Precipitation Wind Pressure Humidity
    00:00 -11°C° 0.1 mm 8 mps 741 mmHg 80%
    01:00 -11°C° 0.1 mm 8 mps 742 mmHg 81%
    02:00 -11°C° 0.1 mm 8 mps 743 mmHg 81%
    03:00 -12°C° 0.1 mm 7 mps 744 mmHg 81%
    04:00 -12°C° 0.1 mm 7 mps 745 mmHg 82%
    05:00 -11°C° 0.1 mm 6 mps 745 mmHg 82%
    06:00 -11°C° 0 mm 6 mps 746 mmHg 81%
    07:00 -11°C° 0 mm 6 mps 747 mmHg 81%
    08:00 -10°C° 0 mm 6 mps 747 mmHg 80%
    09:00 -10°C° 0 mm 6 mps 748 mmHg 79%
    10:00 -9°C° 0 mm 6 mps 749 mmHg 77%
    11:00 -7°C° 0 mm 5 mps 749 mmHg 75%
    12:00 -7°C° 0 mm 5 mps 750 mmHg 74%
    13:00 -7°C° 0 mm 5 mps 750 mmHg 73%
    14:00 -5°C° 0 mm 4 mps 751 mmHg 72%
    15:00 -7°C° 0 mm 4 mps 751 mmHg 74%
    16:00 -7°C° 0 mm 4 mps 751 mmHg 77%
    17:00 -7°C° 0 mm 3 mps 752 mmHg 79%
    18:00 -9°C° 0 mm 3 mps 752 mmHg 81%
    19:00 -10°C° 0 mm 3 mps 752 mmHg 82%
    20:00 -12°C° 0 mm 2 mps 752 mmHg 83%
    21:00 -12°C° 0 mm 2 mps 752 mmHg 82%
    22:00 -14°C° 0 mm 3 mps 752 mmHg 81%
    23:00 -14°C° 0 mm 3 mps 752 mmHg 79%

    6 April, Monday

    Time Temperature Precipitation Wind Pressure Humidity
    00:00 -14°C° 0 mm 3 mps 752 mmHg 79%
    01:00 -14°C° 0 mm 3 mps 752 mmHg 79%
    02:00 -13°C° 0 mm 3 mps 751 mmHg 78%
    03:00 -13°C° 0 mm 3 mps 751 mmHg 81%
    04:00 -12°C° 0 mm 4 mps 751 mmHg 84%
    05:00 -13°C° 0 mm 5 mps 750 mmHg 87%
    06:00 -12°C° 0.2 mm 5 mps 749 mmHg 89%
    07:00 -11°C° 0.2 mm 6 mps 749 mmHg 91%
    08:00 -11°C° 0.2 mm 7 mps 748 mmHg 92%
    09:00 -9°C° 0.1 mm 7 mps 748 mmHg 92%
    10:00 -8°C° 0.1 mm 7 mps 747 mmHg 91%
    11:00 -7°C° 0.1 mm 8 mps 747 mmHg 91%
    12:00 -6°C° 0 mm 7 mps 746 mmHg 92%
    13:00 -3°C° 0 mm 7 mps 746 mmHg 92%
    14:00 -2°C° 0 mm 7 mps 745 mmHg 93%
    15:00 -2°C° 0 mm 7 mps 745 mmHg 93%
    16:00 -2°C° 0 mm 7 mps 744 mmHg 93%
    17:00 -1°C° 0 mm 7 mps 744 mmHg 93%
    18:00 -1°C° 0 mm 7 mps 744 mmHg 92%
    19:00 -2°C° 0 mm 7 mps 743 mmHg 91%
    20:00 -2°C° 0 mm 7 mps 743 mmHg 90%
    21:00 -2°C° 0 mm 7 mps 743 mmHg 89%
    22:00 -2°C° 0 mm 7 mps 742 mmHg 89%
    23:00 -2°C° 0 mm 7 mps 742 mmHg 88%

    7 April, Tuesday

    Time Temperature Precipitation Wind Pressure Humidity
    00:00 -2°C° 0 mm 7 mps 741 mmHg 88%
    01:00 -2°C° 0 mm 7 mps 741 mmHg 89%
    02:00 -2°C° 0 mm 7 mps 741 mmHg 89%
    03:00 -2°C° 0 mm 7 mps 740 mmHg 89%
    04:00 -2°C° 0 mm 7 mps 739 mmHg 90%
    05:00 -2°C° 0 mm 7 mps 739 mmHg 91%
    06:00 -2°C° 0 mm 7 mps 738 mmHg 92%
    07:00 -1°C° 0 mm 7 mps 738 mmHg 94%
    08:00 -1°C° 0 mm 7 mps 738 mmHg 96%
    09:00 -1°C° 0 mm 7 mps 737 mmHg 97%
    10:00 -1°C° 0 mm 7 mps 737 mmHg 98%
    11:00 -1°C° 0 mm 7 mps 737 mmHg 98%
    12:00 -1°C° 0.6 mm 6 mps 736 mmHg 98%
    13:00 -1°C° 0.6 mm 6 mps 736 mmHg 99%
    14:00 0°C° 0.6 mm 5 mps 736 mmHg 99%
    15:00 -1°C° 0.1 mm 6 mps 736 mmHg 94%
    16:00 -1°C° 0.1 mm 7 mps 736 mmHg 89%
    17:00 -1°C° 0.1 mm 7 mps 736 mmHg 84%
    18:00 -2°C° 0 mm 7 mps 735 mmHg 82%
    19:00 -3°C° 0 mm 7 mps 735 mmHg 80%
    20:00 -4°C° 0 mm 6 mps 735 mmHg 78%
    21:00 -4°C° 0 mm 7 mps 734 mmHg 76%
    22:00 -6°C° 0 mm 7 mps 733 mmHg 75%
    23:00 -6°C° 0 mm 8 mps 733 mmHg 73%

    8 April, Wednesday

    Time Temperature Precipitation Wind Pressure Humidity
    00:00 -6°C° 0.1 mm 8 mps 732 mmHg 79%
    01:00 -6°C° 0.1 mm 9 mps 731 mmHg 86%
    02:00 -8°C° 0.1 mm 9 mps 730 mmHg 92%
    03:00 -5°C° 0.2 mm 10 mps 731 mmHg 92%
    04:00 -4°C° 0.2 mm 10 mps 731 mmHg 92%
    05:00 -3°C° 0.2 mm 11 mps 732 mmHg 92%
    06:00 -3°C° 0.1 mm 11 mps 733 mmHg 87%
    07:00 -3°C° 0.1 mm 11 mps 734 mmHg 82%
    08:00 -4°C° 0.1 mm 11 mps 736 mmHg 76%
    09:00 -4°C° 0 mm 11 mps 737 mmHg 75%
    10:00 -4°C° 0 mm 11 mps 739 mmHg 74%
    11:00 -5°C° 0 mm 12 mps 740 mmHg 73%
    12:00 -4°C° 0 mm 11 mps 741 mmHg 72%
    13:00 -4°C° 0 mm 9 mps 743 mmHg 72%
    14:00 -4°C° 0 mm 8 mps 744 mmHg 72%
    15:00 -3°C° 0 mm 7 mps 744 mmHg 73%
    16:00 -3°C° 0 mm 7 mps 745 mmHg 75%
    17:00 -3°C° 0 mm 6 mps 745 mmHg 77%
    18:00 -3°C° 0 mm 6 mps 744 mmHg 77%
    19:00 -3°C° 0 mm 7 mps 743 mmHg 77%
    20:00 -2°C° 0 mm 7 mps 742 mmHg 77%
    21:00 -2°C° 0 mm 8 mps 741 mmHg 80%
    22:00 -2°C° 0 mm 10 mps 740 mmHg 82%
    23:00 -1°C° 0 mm 11 mps 739 mmHg 84%
    Show more